This demonstration page uses our WeatherBlox Daily Observations layout. Learn more.

Left ArrowRight Arrow

41.86663, -103.66717

Hourly Observations for June 2, 2020

Temp ( °F °C ) Dew Point ( °F °C ) Humidity (%) Winds ( mph kmh ) Pressure ( in mb ) Visibility ( mi km ) Precip ( " mm )
12:53 am 00:53 Clear 67 19.4 53 11.7 61 61 ESE 7 11 29.77 1008 10 16 0.00 0.00
1:53 am 01:53 Clear 68 20 55 12.8 63 63 ENE 7 11 29.77 1008 10 16 0.00 0.00
2:53 am 02:53 Clear 66 18.9 53 11.7 63 63 E 3 6 29.78 1008 10 16 0.00 0.00
3:53 am 03:53 Clear 63 17.2 54 12.2 73 73 Calm 29.79 1009 10 16 0.00 0.00
4:53 am 04:53 Clear 62 16.7 54 12.2 75 75 NNW 7 11 29.81 1009 10 16 0.00 0.00
5:53 am 05:53 Sunny 67 19.4 52 11.1 59 59 NNW 3 6 29.82 1010 10 16 0.00 0.00
6:53 am 06:53 Sunny 69 20.6 51 10.6 53 53 WNW 7 11 29.85 1011 10 16 0.00 0.00
7:53 am 07:53 Sunny 71 21.7 51 10.6 49 49 WNW 9 15 29.88 1012 10 16 0.00 0.00
8:53 am 08:53 Sunny 79 26.1 57 13.9 47 47 NW 18 30 29.89 1012 10 16 0.00 0.00
9:53 am 09:53 Sunny 83 28.3 57 13.9 41 41 NW 15 24 29.90 1013 10 16 0.00 0.00
10:53 am 10:53 Sunny 85 29.4 59 15 42 42 NNW 15 24 29.92 1013 10 16 0.00 0.00
11:53 am 11:53 Sunny 85 29.4 58 14.4 40 40 N 13 20 29.94 1014 10 16 0.00 0.00
12:53 pm 12:53 Sunny 86 30 57 13.9 37 37 N 14 22 29.95 1014 10 16 0.00 0.00
1:53 pm 13:53 Sunny 85 29.4 58 14.4 40 40 NNE 13 20 29.93 1014 10 16 0.00 0.00
2:05 pm 14:05 Mostly Sunny 86 30 60 15.6 42 42 ENE 14 22 29.76 1008 10 16 0.00 0.00
2:53 pm 14:53 Mostly Sunny 87 30.6 59 15 39 39 NE 15 24 29.93 1014 10 16 0.00 0.00
3:53 pm 15:53 Sunny 87 30.6 55 12.8 34 34 NE 14 22 29.93 1014 10 16 0.00 0.00
4:53 pm 16:53 Sunny 85 29.4 55 12.8 36 36 ENE 14 22 29.93 1013 10 16 0.00 0.00
5:53 pm 17:53 Sunny 82 27.8 55 12.8 40 40 ENE 13 20 29.91 1013 10 16 0.00 0.00
6:53 pm 18:53 Sunny 80 26.7 54 12.2 41 41 E 14 22 29.93 1014 10 16 0.00 0.00
7:53 pm 19:53 Mostly Sunny 77 25 55 12.8 47 47 SE 7 11 29.98 1015 10 16 0.00 0.00
8:11 pm 20:11 Mostly Cloudy with Thunderstorms 75 23.9 57 13.9 54 54 SSE 7 11 29.90 1012 10 16 0.00 0.00
8:26 pm 20:26 Cloudy with Light Rain 72 22.2 61 16.1 68 68 ESE 15 24 29.89 1012 10 16 0.00 0.00
8:53 pm 20:53 Partly Cloudy with Light Rain 71 21.7 59 15 66 66 E 16 26 29.94 1014 10 16 0.00 0.00
9:53 pm 21:53 Partly Cloudy 69 20.6 59 15 70 70 ENE 12 19 29.96 1015 10 16 0.00 0.00
10:01 pm 22:01 Mostly Cloudy with Nearby Thunderstorms 69 20.6 59 15 70 70 NE 13 20 29.93 1014 10 16 0.00 0.00
10:11 pm 22:11 Mostly Cloudy 70 21.1 60 15.6 71 71 NNW 20 31 29.97 1015 10 16 0.00 0.00
10:28 pm 22:28 Mostly Cloudy with Nearby Thunderstorms 68 20 61 16 78 78 ENE 16 26 29.95 1014 7 11 0.00 0.00
10:37 pm 22:37 Mostly Cloudy with Nearby Thunderstorms 67 19.4 60 15.6 79 79 ENE 17 28 29.93 1014 10 16 0.03 0.76
10:46 pm 22:46 Mostly Cloudy 67 19.4 60 15.6 79 79 ENE 18 30 29.92 1013 10 16 0.03 0.76
10:53 pm 22:53 Partly Cloudy 67 19.4 60 15.6 79 79 ENE 14 22 29.96 1014 10 16 0.03 0.76
11:53 pm 23:53 Clear 66 18.9 59 15 78 78 SSE 13 20 29.97 1015 10 16 0.00 0.00

Powered by AerisWeather